Weather in Primorsko

Bulgaria     42°16′11″N   27°45′01″E
temp.,
°C
wind,
m/s
gust,
m/s
humid.,
%
clouds,
%
prec.,
mm/h
press.,
hPa
HPBL,
m
8 may, sat
sat800:00+16ssw356149 0.0 100999
03:00+15wsw236425 0.0 100933
06:00+14wsw3369100 0.0 100940
09:00+18wnw51071100 0.0 1013546
12:00+19nw5760100 0.0 1014887
15:00+15nnw61267100 0.0 1016811
18:00+13wnw2688100 1.4 1018343
21:00+12ne4789100 3.9 1020493
9 may, sun
sun900:00+10n138567 0.1 1022133
03:00+9nw22875 0.1 102381
06:00+8n24845 0.0 1025203
09:00+13ne45675 0.0 10271127
12:00+14ne55575 0.0 10281101
15:00+14ene55531 0.0 10281052
18:00+13e45595 0.0 1028706
21:00+9ese36705 0.0 1028171
10 may, mon
mon1000:00+8se23775 0.0 1028141
03:00+7s12800 0.0 1027144
06:00+6ese02795 0.0 1027163
09:00+13e56590 0.0 10271032
12:00+14e66541 0.0 10271083
15:00+14e56565 0.0 10261024
18:00+13e56621 0.0 1025875
21:00+10e48710 0.0 1025277
11 may, tue
tue1100:00+10e35730 0.0 1024183
03:00+8e13770 0.0 1023162
06:00+7n12810 0.0 1022177
09:00+13ene35630 0.0 10221009
12:00+15ene44580 0.0 1022972
15:00+15ene44540 0.0 1020833
18:00+14e44570 0.0 1019591
21:00+9se23740 0.0 1018107
12 may, wed
wed1200:00+7sw22840 0.0 101734
03:00+6wsw22841 0.0 101533
06:00+6wsw22810 0.0 101433
09:00+13sse12585 0.0 1013329
12:00+17ese44514 0.0 1012791
15:00+17ese66544 0.0 1010546
18:00+15ese6967100 0.0 1009421
21:00+11se59790 0.0 1008296